Miscellaneous Local Product
Issued by NWS Hastings, NE

Home | Current Version | Previous Version | Text Only | Print | Product List | Glossary On
Versions: 1 2 3 4 5 6 7 8 9 10 11 12 13 14 15 16 17 18 19 20 21 22 23 24 25 26 27 28 29 30 31 32 33 34 35 36 37 38 39 40 41 42 43 44 45 46 47 48 49 50
000
AXUS43 KGID 191502
MISGRI

GID CWA HOURLY WEATHER ROUNDUP
NATIONAL WEATHER SERVICE HASTINGS NE
900 AM CST FRI DEC 19 2014

NOTE: "FAIR" INDICATES FEW OR NO CLOUDS BELOW 12,000 FEET WITH NO
SIGNIFICANT WEATHER AND/OR OBSTRUCTIONS TO VISIBILITY.

...SOUTH CENTRAL NEBRASKA...

CITY           SKY/WX    TMP DP  RH WIND       PRES   REMARKS
GRAND ISLAND   CLOUDY    31  28  89 SW6       30.16R WCI  25
HASTINGS       CLOUDY    30  27  88 SW8       30.15R WCI  22
KEARNEY        CLOUDY    27  25  93 S7        30.14S VSB 1/4 WCI  19
ORD            NOT AVBL
YORK           CLOUDY    32  28  86 S6        30.17S FOG     WCI  26
AURORA         CLOUDY    32  29  91 SW6       30.16R WCI  26
LEXINGTON      FOG       26  24  96 W6        30.12S VSB 1/4 WCI  19
HOLDREGE       FOG       27  26  96 W5        30.13S VSB 1/4 WCI  22
HEBRON         CLOUDY    30  28  90 S5        30.20R FOG     WCI  25

...NEBRASKA PANHANDLE...

CITY           SKY/WX    TMP DP  RH WIND       PRES   REMARKS
CHADRON        PTCLDY    15   9  76 CALM      30.04S
ALLIANCE       PTCLDY     5   3  91 W9        30.04S WCI  -9
SCOTTSBLUFF    PTCLDY     7   5  91 CALM      30.06F FOG
SIDNEY         PTCLDY    21  12  68 W13       30.07S WCI   9

...WESTERN AND NORTH CENTRAL NEBRASKA...

CITY           SKY/WX    TMP DP  RH WIND       PRES   REMARKS
VALENTINE      CLEAR     14  11  87 SW8       30.04S WCI   3
AINSWORTH      PTCLDY    18  15  87 SW3       30.04S
ONEILL         FOG       26  26 100 S6        30.10S VSB 1/2 WCI  19
BROKEN BOW     FOG       22  21  96 SW5       30.10R VSB 1/2 WCI  16
IMPERIAL       PTCLDY    14   9  80 CALM      30.10F
NORTH PLATTE   PTCLDY    15  10  80 CALM      30.10S
MCCOOK         CLEAR     19  17  92 W6        30.13R FOG     WCI  11

...EASTERN NEBRASKA...

CITY           SKY/WX    TMP DP  RH WIND       PRES   REMARKS
NORFOLK        CLOUDY    29  26  89 S9        30.15S WCI  20
SO SIOUX CITY  CLOUDY    32  28  85 SE9       30.20S FOG     WCI  24
TEKAMAH        CLOUDY    31  29  92 SE6       30.21F FOG     WCI  25
COLUMBUS       CLOUDY    30  25  80 S7        30.19R WCI  23
ALBION         CLOUDY    28  26  90 S8        30.15R FOG     WCI  20
OMAHA EPPLEY   CLOUDY    30  28  93 SE8       30.24S FOG     WCI  23
OFFUTT AFB     CLOUDY    32  28  86 SE6       30.23R FOG     WCI  26
MILLARD        CLOUDY    32  29  90 SE5       30.22S FOG     WCI  27
LINCOLN        CLOUDY    32  28  85 S7        30.22R FOG     WCI  26
NEBRASKA CITY  CLOUDY    30  30 100 S6        30.23R FOG     WCI  24
BEATRICE       CLOUDY    31  29  92 SE5       30.21R FOG     WCI  26
FALLS CITY     CLOUDY    29  26  89 SE6       30.26R WCI  23

...NORTHERN KANSAS...

CITY           SKY/WX    TMP DP  RH WIND       PRES   REMARKS
GOODLAND       CLEAR     27  22  81 W13       30.13R WCI  16
HILL CITY      FOG       28  27  96 W9        30.16R VSB 1/2 WCI  19
NORTON         FOG       28  27  93 W5        30.14R VSB 1/2 WCI  23
PHILLIPSBURG   CLOUDY    36  36 100 CALM      30.17R FOG
SMITH CENTER   CLOUDY    30  28  93 SE6       30.18S FOG     WCI  24
BELOIT         CLOUDY    30  28  93 SE6       30.20R WCI  24
HAYS           MOSUNNY   32  25  74 SE5       30.17R WCI  27
RUSSELL        CLOUDY    32  31  96 S7        30.17R FOG     WCI  26
CONCORDIA      CLOUDY    30  29  96 S7        30.21R FOG     WCI  23
SALINA         CLOUDY    30  28  92 S10       30.25R FOG     WCI  21
TOPEKA         CLOUDY    30  29  96 CALM      30.27S FOG



USA.gov is the U.S. government's official web portal to all federal, state and local government web resources and services.